No,全国地方公共団体コード,都道府県名,市区町村名,公表_年月日,全県病床数,全県病床数(重症),全県受入可能病床数,全県受入可能病床数(重症),全県使用病床数,全県使用病床数(重症),仙台医療圏確保病床数,仙台医療圏確保病床数(重症),仙台医療圏受入可能病床数,仙台医療圏受入可能病床数(重症),仙台医療圏使用病床数,仙台医療圏使用病床数(重症),
1,040002,宮城県,,2022-09-23,595,55,216,16,126,6,399,40,135,9,93,4,
2,040002,宮城県,,2022-09-24,595,55,212,16,122,6,399,40,132,9,90,4,
3,040002,宮城県,,2022-09-25,595,55,212,16,121,6,399,40,134,9,91,4,
4,040002,宮城県,,2022-09-26,595,55,249,17,129,6,399,40,156,10,98,5,
5,040002,宮城県,,2022-09-27,597,55,240,16,118,3,399,40,147,9,94,3,
6,040002,宮城県,,2022-09-28,597,55,230,16,107,3,399,40,138,9,81,3,
7,040002,宮城県,,2022-09-29,597,55,225,16,103,3,399,40,136,9,79,3,
8,040002,宮城県,,2022-09-30,597,55,222,16,95,2,399,40,135,9,72,2,
9,040002,宮城県,,2022-10-01,597,55,189,17,94,3,399,40,118,10,73,3,
10,040002,宮城県,,2022-10-02,597,55,191,17,97,3,399,40,121,10,77,3,
11,040002,宮城県,,2022-10-03,597,55,221,16,103,3,399,40,133,9,78,3,
12,040002,宮城県,,2022-10-04,597,55,235,16,110,4,399,40,146,9,86,4,
13,040002,宮城県,,2022-10-05,597,55,231,17,111,4,399,40,142,10,87,4,
14,040002,宮城県,,2022-10-06,597,55,229,17,109,4,399,40,138,10,83,4,
15,040002,宮城県,,2022-10-07,597,55,231,16,111,3,399,40,138,9,83,3,
16,040002,宮城県,,2022-10-08,597,55,195,16,100,1,399,40,122,9,76,1,
17,040002,宮城県,,2022-10-09,597,55,187,15,102,1,399,40,112,9,76,1,
18,040002,宮城県,,2022-10-10,597,55,192,15,108,1,399,40,118,9,83,1,
19,040002,宮城県,,2022-10-11,597,55,228,16,113,1,399,40,137,9,84,1,
20,040002,宮城県,,2022-10-12,597,55,233,16,116,2,399,40,142,9,86,2,
21,040002,宮城県,,2022-10-13,597,55,225,16,104,1,399,40,138,8,79,0,
22,040002,宮城県,,2022-10-14,597,55,225,15,105,0,399,40,136,8,77,0,
23,040002,宮城県,,2022-10-15,597,55,197,15,106,0,399,40,120,8,76,0,
24,040002,宮城県,,2022-10-16,597,55,192,15,104,0,399,40,116,8,76,0,
25,040002,宮城県,,2022-10-17,597,55,235,15,125,0,399,40,146,8,91,0,
26,040002,宮城県,,2022-10-18,597,55,229,14,123,1,399,40,140,7,87,0,
27,040002,宮城県,,2022-10-19,597,55,232,14,118,1,399,40,143,7,84,0,
28,040002,宮城県,,2022-10-20,597,55,230,14,122,1,399,40,137,7,80,0,
29,040002,宮城県,,2022-10-21,597,55,228,13,122,1,399,40,137,6,81,0,
30,040002,宮城県,,2022-10-22,597,55,206,12,111,0,399,40,119,6,69,0,
31,040002,宮城県,,2022-10-23,597,55,196,12,107,0,399,40,112,6,68,0,
32,040002,宮城県,,2022-10-24,597,55,231,12,117,0,399,40,138,6,79,0,
33,040002,宮城県,,2022-10-25,599,55,234,13,115,1,399,40,139,7,77,1,
34,040002,宮城県,,2022-10-26,599,55,237,12,112,0,399,40,141,6,78,0,
35,040002,宮城県,,2022-10-27,599,55,232,12,109,0,399,40,137,6,77,0,
36,040002,宮城県,,2022-10-28,599,55,236,14,118,1,399,40,138,7,83,0,
37,040002,宮城県,,2022-10-29,599,55,211,13,115,1,399,40,124,6,80,0,
38,040002,宮城県,,2022-10-30,599,55,208,13,117,1,399,40,122,6,83,0,
39,040002,宮城県,,2022-10-31,599,55,244,14,123,1,399,40,143,7,85,0,
40,040002,宮城県,,2022-11-01,599,55,259,12,133,1,399,40,156,6,97,1,
41,040002,宮城県,,2022-11-02,605,55,251,12,128,2,399,40,149,5,93,1,
42,040002,宮城県,,2022-11-03,605,55,243,14,146,5,399,40,148,7,111,5,
43,040002,宮城県,,2022-11-04,605,55,252,15,157,6,399,40,155,7,113,5,
44,040002,宮城県,,2022-11-05,605,55,239,14,165,5,399,40,146,7,117,4,
45,040002,宮城県,,2022-11-06,605,55,245,14,170,5,399,40,155,8,124,5,
46,040002,宮城県,,2022-11-07,605,55,264,13,177,4,399,40,166,7,126,4,
47,040002,宮城県,,2022-11-08,605,55,268,14,170,5,399,40,170,8,119,5,
48,040002,宮城県,,2022-11-09,605,55,271,12,175,4,399,40,165,6,117,4,
49,040002,宮城県,,2022-11-10,605,55,285,11,193,4,399,40,173,5,126,3,
50,040002,宮城県,,2022-11-11,605,55,294,11,208,5,399,40,175,5,138,4,
51,040002,宮城県,,2022-11-12,605,55,284,10,223,4,399,40,166,4,148,3,
52,040002,宮城県,,2022-11-13,605,55,294,12,237,5,399,40,180,6,160,4,
53,040002,宮城県,,2022-11-14,605,55,334,15,261,8,399,40,198,7,172,5,
54,040002,宮城県,,2022-11-15,605,55,329,14,257,7,399,40,189,8,161,6,
55,040002,宮城県,,2022-11-16,605,55,347,13,279,5,399,40,206,7,179,5,
56,040002,宮城県,,2022-11-17,605,55,357,14,290,5,399,40,218,8,188,5,
57,040002,宮城県,,2022-11-18,605,55,368,16,302,7,399,40,225,9,198,5,
58,040002,宮城県,,2022-11-19,605,55,349,17,294,9,399,40,212,9,194,6,
59,040002,宮城県,,2022-11-20,605,55,356,14,306,8,399,40,219,6,209,5,
60,040002,宮城県,,2022-11-21,605,55,372,17,313,11,399,40,231,10,214,9,
61,040002,宮城県,,2022-11-22,605,55,395,20,333,13,399,40,249,13,228,11,
62,040002,宮城県,,2022-11-23,592,55,383,21,335,15,386,40,242,14,229,13,
63,040002,宮城県,,2022-11-24,592,55,398,24,342,19,386,40,261,17,239,17,
64,040002,宮城県,,2022-11-25,592,55,395,23,345,15,386,40,261,16,245,14,
65,040002,宮城県,,2022-11-26,592,55,388,20,346,12,386,40,255,13,245,11,
66,040002,宮城県,,2022-11-27,592,55,395,24,352,17,386,40,260,16,249,16,
67,040002,宮城県,,2022-11-28,592,55,408,23,364,14,386,40,265,15,250,13,
68,040002,宮城県,,2022-11-29,592,55,413,26,364,16,386,40,268,17,246,14,
69,040002,宮城県,,2022-11-30,592,55,421,27,375,18,386,40,277,19,255,17,
70,040002,宮城県,,2022-12-01,592,55,442,28,382,17,386,40,287,20,257,16,
71,040002,宮城県,,2022-12-02,592,55,443,26,396,18,386,40,287,19,262,18,
72,040002,宮城県,,2022-12-03,592,55,426,25,381,16,386,40,280,17,258,15,
73,040002,宮城県,,2022-12-04,592,55,424,24,374,16,386,40,282,16,260,15,
74,040002,宮城県,,2022-12-05,592,55,437,26,366,16,386,40,290,18,252,15,
75,040002,宮城県,,2022-12-06,592,55,440,26,368,14,386,40,284,19,245,14,
76,040002,宮城県,,2022-12-07,592,55,438,22,378,11,386,40,284,15,255,11,
77,040002,宮城県,,2022-12-08,597,55,436,23,372,13,391,40,287,15,257,12,
78,040002,宮城県,,2022-12-09,597,55,444,24,381,15,391,40,286,16,259,13,
79,040002,宮城県,,2022-12-10,597,55,428,24,377,15,391,40,280,17,258,14,
80,040002,宮城県,,2022-12-11,597,55,429,27,385,18,391,40,279,20,263,17,
81,040002,宮城県,,2022-12-12,597,55,453,28,401,20,391,40,300,21,284,19,
82,040002,宮城県,,2022-12-13,604,55,445,24,379,16,398,40,308,17,279,15,
83,040002,宮城県,,2022-12-14,610,55,441,24,374,15,404,40,304,17,273,14,
84,040002,宮城県,,2022-12-15,610,55,442,27,378,17,404,40,306,20,277,16,
85,040002,宮城県,,2022-12-16,612,55,439,26,373,17,406,40,314,20,282,17,
86,040002,宮城県,,2022-12-17,612,55,419,24,347,15,406,40,298,18,264,15,
87,040002,宮城県,,2022-12-18,612,55,418,23,352,13,406,40,297,17,266,13,
88,040002,宮城県,,2022-12-19,612,55,441,22,377,14,406,40,311,15,280,12,
89,040002,宮城県,,2022-12-20,612,55,427,24,357,15,406,40,301,17,263,13,
90,040002,宮城県,,2022-12-21,612,55,416,24,352,15,406,40,290,17,260,13,
91,040002,宮城県,,2022-12-22,612,55,421,27,363,20,406,40,295,19,267,17,
92,040002,宮城県,,2022-12-23,612,55,427,24,365,15,406,40,299,17,265,13,
93,040002,宮城県,,2022-12-24,612,55,418,24,361,16,406,40,300,17,267,14,
94,040002,宮城県,,2022-12-25,612,55,426,26,375,16,406,40,309,19,284,14,
95,040002,宮城県,,2022-12-26,612,55,441,27,395,19,406,40,315,20,290,15,
96,040002,宮城県,,2022-12-27,612,55,450,24,407,20,406,40,313,18,290,15,
97,040002,宮城県,,2022-12-28,612,55,465,22,408,18,406,40,325,17,297,14,
98,040002,宮城県,,2022-12-29,616,55,459,26,405,15,406,40,321,17,295,12,
99,040002,宮城県,,2022-12-30,616,55,451,26,401,16,406,40,317,17,294,13,
100,040002,宮城県,,2022-12-31,616,55,447,26,401,19,406,40,316,20,295,16,
101,040002,宮城県,,2023-01-01,616,55,454,28,404,19,406,40,327,20,303,15,
102,040002,宮城県,,2023-01-02,616,55,458,29,412,21,406,40,322,21,302,17,
103,040002,宮城県,,2023-01-03,616,55,445,26,408,20,406,40,313,20,296,16,
104,040002,宮城県,,2023-01-04,616,55,451,24,394,18,406,40,319,18,294,15,
105,040002,宮城県,,2023-01-05,618,55,435,24,369,17,408,40,308,16,274,13,
106,040002,宮城県,,2023-01-06,618,55,426,21,363,13,408,40,303,13,271,10,
107,040002,宮城県,,2023-01-07,626,55,413,22,353,13,408,40,280,13,255,10,
108,040002,宮城県,,2023-01-08,626,55,400,20,351,14,408,40,274,14,252,11,
109,040002,宮城県,,2023-01-09,626,55,414,22,366,13,408,40,287,15,268,10,
110,040002,宮城県,,2023-01-10,626,55,456,22,387,13,408,40,310,15,279,10,
111,040002,宮城県,,2023-01-11,626,55,440,19,362,12,408,40,302,14,263,9,
112,040002,宮城県,,2023-01-12,628,55,432,24,353,12,410,40,291,16,248,9,
113,040002,宮城県,,2023-01-13,628,55,446,25,369,14,410,40,295,16,258,11,
114,040002,宮城県,,2023-01-14,628,55,426,24,370,16,410,40,283,15,258,12,
115,040002,宮城県,,2023-01-15,628,55,419,26,364,18,410,40,276,18,252,15,
116,040002,宮城県,,2023-01-16,628,55,437,26,365,17,410,40,289,17,253,14,
117,040002,宮城県,,2023-01-17,628,55,437,25,365,16,410,40,291,16,260,13,
118,040002,宮城県,,2023-01-18,628,55,409,25,327,16,410,40,279,16,243,13,
119,040002,宮城県,,2023-01-19,628,55,417,24,326,13,410,40,285,15,245,10,
120,040002,宮城県,,2023-01-20,630,55,402,23,311,13,410,40,270,14,228,10,
121,040002,宮城県,,2023-01-21,630,55,382,23,297,11,410,40,266,15,224,9,
122,040002,宮城県,,2023-01-22,630,55,376,22,298,10,410,40,259,14,224,8,
123,040002,宮城県,,2023-01-23,630,55,385,23,289,9,410,40,262,15,212,8,
124,040002,宮城県,,2023-01-24,631,55,393,20,272,6,411,40,269,13,213,6,
125,040002,宮城県,,2023-01-25,631,55,383,20,262,6,411,40,267,13,211,6,
126,040002,宮城県,,2023-01-26,631,55,365,22,249,8,411,40,254,15,201,8,
127,040002,宮城県,,2023-01-27,631,55,356,22,241,7,411,40,240,15,189,7,
128,040002,宮城県,,2023-01-28,631,55,324,21,219,6,411,40,222,14,171,6,
129,040002,宮城県,,2023-01-29,631,55,318,21,212,6,411,40,218,14,166,6,
130,040002,宮城県,,2023-01-30,631,55,331,22,207,8,411,40,217,15,158,8,
131,040002,宮城県,,2023-01-31,631,55,334,25,203,11,411,40,223,18,165,11,
132,040002,宮城県,,2023-02-01,631,55,341,24,195,10,411,40,231,17,156,10,
133,040002,宮城県,,2023-02-02,631,55,342,25,194,11,411,40,225,17,150,10,
134,040002,宮城県,,2023-02-03,631,55,337,26,192,12,411,40,221,17,146,10,
135,040002,宮城県,,2023-02-04,631,55,298,24,176,11,411,40,200,16,140,10,
136,040002,宮城県,,2023-02-05,631,55,293,22,176,9,411,40,195,14,140,8,
137,040002,宮城県,,2023-02-06,631,55,333,22,182,8,411,40,221,14,144,7,
138,040002,宮城県,,2023-02-07,631,55,333,25,184,11,411,40,222,17,146,10,
139,040002,宮城県,,2023-02-08,631,55,330,19,182,8,411,40,220,12,144,8,
140,040002,宮城県,,2023-02-09,631,55,329,17,184,7,411,40,219,10,147,7,
141,040002,宮城県,,2023-02-10,631,55,318,15,177,5,411,40,209,8,139,5,
142,040002,宮城県,,2023-02-11,631,55,298,15,178,4,411,40,204,8,140,4,
143,040002,宮城県,,2023-02-12,631,55,285,14,172,4,411,40,188,7,130,4,
144,040002,宮城県,,2023-02-13,631,55,333,16,190,6,411,40,218,9,147,6,
145,040002,宮城県,,2023-02-14,633,55,334,16,187,6,411,40,218,9,146,6,
146,040002,宮城県,,2023-02-15,635,55,319,16,172,5,411,40,204,9,133,5,
147,040002,宮城県,,2023-02-16,635,55,324,16,176,5,411,40,211,9,140,5,
148,040002,宮城県,,2023-02-17,635,55,334,16,183,5,411,40,214,9,143,5,
149,040002,宮城県,,2023-02-18,635,55,303,17,186,7,411,40,197,10,144,7,
150,040002,宮城県,,2023-02-19,635,55,292,18,174,8,411,40,188,11,134,8,
151,040002,宮城県,,2023-02-20,635,55,321,18,174,8,410,40,202,11,135,8,
152,040002,宮城県,,2023-02-21,634,55,333,18,181,8,410,40,213,11,145,8,
153,040002,宮城県,,2023-02-22,634,55,333,18,185,8,410,40,212,11,150,8,
154,040002,宮城県,,2023-02-23,634,55,301,18,173,8,410,40,198,11,141,8,
155,040002,宮城県,,2023-02-24,634,55,302,17,168,8,410,40,199,10,137,8,
156,040002,宮城県,,2023-02-25,634,55,283,17,161,8,410,40,180,10,134,8,
157,040002,宮城県,,2023-02-26,634,55,265,15,141,5,410,40,162,8,115,5,
158,040002,宮城県,,2023-02-27,634,55,278,17,138,6,410,40,176,10,115,6,
159,040002,宮城県,,2023-02-28,634,55,283,16,122,4,410,40,176,9,105,4,
160,040002,宮城県,,2023-03-01,636,55,277,14,118,2,410,40,170,7,99,2,
161,040002,宮城県,,2023-03-02,636,55,273,16,116,4,410,40,163,9,100,4,
162,040002,宮城県,,2023-03-03,636,55,269,17,110,4,410,40,159,10,93,4,
163,040002,宮城県,,2023-03-04,636,55,247,18,108,6,410,40,151,11,93,6,
164,040002,宮城県,,2023-03-05,636,55,230,18,94,6,410,40,134,11,78,6,
165,040002,宮城県,,2023-03-06,636,55,253,16,90,4,410,40,144,9,74,4,
166,040002,宮城県,,2023-03-07,636,55,252,17,90,6,410,40,141,10,69,6,
167,040002,宮城県,,2023-03-08,636,55,249,17,87,5,410,40,139,10,66,5,
168,040002,宮城県,,2023-03-09,636,55,229,18,75,5,410,40,116,10,53,4,
169,040002,宮城県,,2023-03-10,636,55,224,16,71,4,410,40,112,9,49,3,
170,040002,宮城県,,2023-03-11,636,55,201,16,68,4,410,40,100,9,44,3,
171,040002,宮城県,,2023-03-12,636,55,201,16,70,4,410,40,100,9,44,3,
172,040002,宮城県,,2023-03-13,636,55,223,15,68,5,410,40,110,8,43,4,
173,040002,宮城県,,2023-03-14,636,55,227,16,77,7,410,40,111,8,47,5,
174,040002,宮城県,,2023-03-15,636,55,221,13,72,3,410,40,107,6,44,2,
175,040002,宮城県,,2023-03-16,636,55,229,14,80,3,410,40,110,7,48,3,
176,040002,宮城県,,2023-03-17,636,55,230,15,78,3,410,40,112,8,48,3,
177,040002,宮城県,,2023-03-18,636,55,199,14,69,1,410,40,102,7,44,1,
178,040002,宮城県,,2023-03-19,636,55,198,14,70,2,410,40,103,7,44,1,
179,040002,宮城県,,2023-03-20,636,55,217,15,69,2,410,40,109,7,44,1,
180,040002,宮城県,,2023-03-21,636,55,212,15,67,2,410,40,103,7,42,1,
181,040002,宮城県,,2023-03-22,636,55,218,15,68,2,410,40,106,7,41,1,
182,040002,宮城県,,2023-03-23,636,55,222,16,72,2,410,40,109,8,45,1,
183,040002,宮城県,,2023-03-24,636,55,221,16,71,2,410,40,111,8,48,1,
184,040002,宮城県,,2023-03-25,636,55,207,16,70,2,410,40,112,8,49,1,
185,040002,宮城県,,2023-03-26,636,55,206,16,68,2,410,40,111,8,47,1,
186,040002,宮城県,,2023-03-27,636,55,208,16,55,2,410,40,103,8,39,1,
187,040002,宮城県,,2023-03-28,636,55,213,17,53,3,410,40,107,10,40,3,
188,040002,宮城県,,2023-03-29,636,55,209,17,48,3,410,40,104,10,36,3,
189,040002,宮城県,,2023-03-30,636,55,205,17,46,3,410,40,104,10,36,3,
190,040002,宮城県,,2023-03-31,636,55,200,14,39,2,410,40,99,7,30,2,
191,040002,宮城県,,2023-04-01,636,55,178,14,35,2,410,40,94,7,30,2,
192,040002,宮城県,,2023-04-02,622,55,174,13,31,1,399,40,90,6,26,1,
193,040002,宮城県,,2023-04-03,622,55,195,14,31,2,399,40,98,7,26,2,
194,040002,宮城県,,2023-04-04,622,55,197,15,29,4,399,40,97,8,26,4,
195,040002,宮城県,,2023-04-05,622,55,198,16,31,5,399,40,97,8,27,4,
196,040002,宮城県,,2023-04-06,622,55,198,15,27,3,399,40,98,7,25,2,
197,040002,宮城県,,2023-04-07,622,55,198,14,27,2,399,40,98,7,24,2,
198,040002,宮城県,,2023-04-08,622,55,182,14,35,2,399,40,95,7,30,2,
199,040002,宮城県,,2023-04-09,622,55,183,14,37,2,399,40,96,7,31,2,
200,040002,宮城県,,2023-04-10,622,55,200,16,36,3,399,40,99,9,30,3,
201,040002,宮城県,,2023-04-11,622,55,203,16,40,3,399,40,100,9,31,3,
202,040002,宮城県,,2023-04-12,622,55,201,16,39,3,399,40,101,9,31,3,
203,040002,宮城県,,2023-04-13,622,55,203,15,38,2,399,40,101,8,30,2,
204,040002,宮城県,,2023-04-14,622,55,203,12,39,1,399,40,101,5,31,1,
205,040002,宮城県,,2023-04-15,622,55,181,12,39,1,399,40,93,5,31,1,
206,040002,宮城県,,2023-04-16,622,55,178,12,38,1,399,40,88,5,28,1,
207,040002,宮城県,,2023-04-17,622,55,202,12,41,1,399,40,101,5,30,1,
208,040002,宮城県,,2023-04-18,622,55,208,13,43,1,399,40,104,6,33,1,
209,040002,宮城県,,2023-04-19,622,55,205,14,40,1,399,40,103,7,32,1,
210,040002,宮城県,,2023-04-20,622,55,201,13,36,0,399,40,100,6,27,0,
211,040002,宮城県,,2023-04-21,622,55,203,13,35,0,399,40,101,6,26,0,
212,040002,宮城県,,2023-04-22,622,55,177,12,40,0,399,40,88,5,29,0,
213,040002,宮城県,,2023-04-23,622,55,174,12,41,0,399,40,85,5,30,0,
214,040002,宮城県,,2023-04-24,622,55,204,13,42,0,399,40,100,6,29,0,
215,040002,宮城県,,2023-04-25,622,55,200,14,41,1,399,40,97,7,29,1,
216,040002,宮城県,,2023-04-26,622,55,202,14,43,1,399,40,98,7,29,1,
217,040002,宮城県,,2023-04-27,622,55,199,14,48,1,399,40,94,7,31,1,
218,040002,宮城県,,2023-04-28,622,55,195,13,47,0,399,40,90,6,29,0,
219,040002,宮城県,,2023-04-29,622,55,172,13,44,0,399,40,81,6,27,0,
220,040002,宮城県,,2023-04-30,622,55,169,13,46,0,399,40,79,6,30,0,
221,040002,宮城県,,2023-05-01,622,55,185,14,49,1,399,40,90,6,32,0,
222,040002,宮城県,,2023-05-02,622,55,203,14,52,1,399,40,94,6,33,0,
223,040002,宮城県,,2023-05-03,622,55,193,17,60,1,399,40,96,9,39,0,
224,040002,宮城県,,2023-05-04,622,55,190,17,59,1,399,40,95,9,39,0,
225,040002,宮城県,,2023-05-05,622,55,190,16,59,1,399,40,95,8,39,0,
226,040002,宮城県,,2023-05-06,622,55,197,15,64,1,399,40,102,7,45,0,
227,040002,宮城県,,2023-05-07,622,55,197,15,67,3,399,40,100,6,46,1,
